Swansboro, NC

9:48 AM EDT on May 28, 2017 (GMT -0400)
Bogue McAlf

Weather History for KNJM - February, 2012

Change the Weather History Date:

Monday, February 27, 2012

  Actual Average (KNKT) Record (KNKT)
Temperature  
Mean Temperature 48 °F -  
Max Temperature 62 °F 58 °F 75 °F (1997)
Min Temperature 35 °F 38 °F 23 °F (2006)
Degree Days  
Heating Degree Days 16    
Moisture  
Dew Point 47 °F    
Average Humidity 83    
Maximum Humidity 93    
Minimum Humidity 70    
Precipitation  
Precipitation 0.00 in - - ()
Sea Level Pressure  
Sea Level Pressure 30.42 in    
Wind  
Wind Speed 3 mph (ESE)    
Max Wind Speed 8 mph    
Max Gust Speed -    
Visibility 10 miles    
Events      
Averages and records for this station are not official NWS values.
T = Trace of Precipitation, MM = Missing Value Source: NWS Daily Summary

Daily Weather History Graph

Daily Weather History Graph

Search for Another Location

Airport or City:

Trip Planner

Search our weather history database for the weather conditions in past years. The results will help you decide how hot, cold, wet, or windy it might be!

Date:

Astronomy

Feb. 27, 2012 Rise Set
Actual Time 6:40 AM EST 6:01 PM EST
Civil Twilight 6:15 AM EST 6:27 PM EST
Nautical Twilight 5:45 AM EST 6:56 PM EST
Astronomical Twilight 5:16 AM EST 7:25 PM EST
Moon 9:24 AM EST (2/27) 11:36 PM EST (2/27)
Length of Visible Light 12h 12m
Length of Day
11h 21m
Waxing Crescent, 29% of the Moon is Illuminated
Feb 27
Waxing Crescent
Feb 29
First Quarter
Mar 8
Full
Mar 14
Last Quarter
Mar 22
New

Hourly Weather History & Observations

Time (EST) Temp. Windchill Dew Point Humidity Pressure Visibility Wind Dir Wind Speed Gust Speed Precip Events Conditions
12:57 AM 36.0 °F - 32.0 °F 86% 30.48 in 10.0 mi Calm Calm - N/A   Clear
1:57 AM 35.1 °F - 32.0 °F 89% 30.48 in 10.0 mi Calm Calm - N/A   Partly Cloudy
2:57 AM 37.0 °F - 35.1 °F 93% 30.48 in 10.0 mi Calm Calm - N/A   Overcast
3:57 AM 39.0 °F - 37.0 °F 93% 30.48 in 10.0 mi Calm Calm - N/A   Overcast
4:57 AM 42.1 °F 40.2 °F 37.9 °F 85% 30.49 in 10.0 mi North 3.5 mph - N/A   Overcast
5:57 AM 44.1 °F 41.5 °F 39.0 °F 82% 30.48 in 10.0 mi NE 4.6 mph - N/A   Overcast
6:57 AM 45.0 °F 42.6 °F 41.0 °F 86% 30.48 in 10.0 mi East 4.6 mph - N/A   Overcast
7:57 AM 46.0 °F 44.8 °F 42.1 °F 86% 30.48 in 10.0 mi North 3.5 mph - N/A   Mostly Cloudy
8:57 AM 52.0 °F - 45.0 °F 77% 30.47 in 10.0 mi East 6.9 mph - N/A   Unknown
9:57 AM 55.0 °F - 46.0 °F 72% 30.46 in - East 4.6 mph - N/A   Mostly Cloudy
10:57 AM 57.9 °F - 48.0 °F 70% 30.45 in - East 5.8 mph - N/A   Partly Cloudy
11:57 AM 61.0 °F - 51.1 °F 70% 30.43 in - East 5.8 mph - N/A   Overcast
12:57 PM 61.0 °F - 52.0 °F 72% 30.40 in - SE 4.6 mph - N/A   Overcast
1:57 PM 61.0 °F - 53.1 °F 75% 30.39 in - SSW 5.8 mph - 0.00 in   Overcast
2:57 PM 62.1 °F - 53.1 °F 72% 30.38 in - South 8.1 mph - 0.00 in   Overcast
3:57 PM 60.1 °F - 53.1 °F 78% 30.36 in - South 5.8 mph - N/A   Overcast
4:57 PM 61.0 °F - 53.1 °F 75% 30.36 in - SSW 6.9 mph - N/A   Overcast
5:57 PM 59.0 °F - 53.6 °F 82% 30.36 in - SSW 5.8 mph - N/A   Overcast
6:57 PM 57.9 °F - 54.0 °F 87% 30.36 in - Calm Calm - 0.00 in   Overcast
7:57 PM 55.9 °F - 54.0 °F 93% 30.35 in - Calm Calm - N/A   Overcast
8:57 PM 57.0 °F - 54.0 °F 89% 30.36 in - Calm Calm - N/A   Overcast
9:57 PM 59.0 °F - 55.0 °F 87% 30.35 in - West 3.5 mph - N/A   Overcast
10:57 PM 57.9 °F - 55.0 °F 90% 30.34 in - Calm Calm - N/A   Overcast
11:57 PM 55.9 °F - 54.0 °F 93% 30.34 in - Calm Calm - N/A   Overcast